CAT63G NFFN-NTAA

Flight info

Callsign CAT63G
Flight time N/A
Altitude 37000
Route EXORA B599 VIMEK B599 ATURE DCT IDUTA
Aircraft B738/M-SDE2E3FGHIRWXY/LB1

Departure

Time 2026-05-04 07:08
Airport Nadi International Airport (NFFN)

Arrival

Time N/A
Airport Fa'a'ā International Airport (NTAA)
Time Latitude Longitude Altitude Speed Heading
2026-05-04 06:52 -17.75266 177.45270 43 ft 0 kts 194°
2026-05-04 06:59 -17.75246 177.45275 43 ft 4 kts 196°
2026-05-04 07:01 -17.75178 177.45278 45 ft 0 kts 284°
2026-05-04 07:03 -17.75178 177.45277 45 ft 1 kts 284°
2026-05-04 07:03 -17.75172 177.45250 43 ft 8 kts 284°
2026-05-04 07:04 -17.75129 177.45196 46 ft 11 kts 327°
2026-05-04 07:04 -17.75082 177.45141 44 ft 10 kts 289°
2026-05-04 07:04 -17.75063 177.45070 46 ft 10 kts 284°
2026-05-04 07:04 -17.75051 177.44999 46 ft 10 kts 279°
2026-05-04 07:05 -17.75040 177.44930 44 ft 9 kts 279°
2026-05-04 07:05 -17.75027 177.44863 43 ft 9 kts 281°
2026-05-04 07:05 -17.75016 177.44798 46 ft 9 kts 281°
2026-05-04 07:05 -17.75011 177.44734 46 ft 9 kts 255°
2026-05-04 07:06 -17.75034 177.44710 46 ft 0 kts 215°
2026-05-04 07:06 -17.75165 177.44604 46 ft 58 kts 217°
2026-05-04 07:07 -17.75677 177.44192 46 ft 126 kts 217°
2026-05-04 07:08 -17.82041 177.37032 3475 ft 232 kts 289°
2026-05-04 07:09 -17.81177 177.35614 3952 ft 236 kts 321°
2026-05-04 07:09 -17.79695 177.34847 4331 ft 244 kts 353°
2026-05-04 07:09 -17.78026 177.34991 4728 ft 250 kts 19°
2026-05-04 07:09 -17.76348 177.35618 5087 ft 262 kts 21°
2026-05-04 07:10 -17.74603 177.36288 5635 ft 265 kts 21°
2026-05-04 07:10 -17.72864 177.36935 6314 ft 271 kts 19°
2026-05-04 07:12 -17.66595 177.47522 10478 ft 326 kts 100°
2026-05-04 07:12 -17.66996 177.49945 10642 ft 348 kts 100°
2026-05-04 07:12 -17.67412 177.52473 10897 ft 364 kts 100°
2026-05-04 07:12 -17.67839 177.55119 11388 ft 371 kts 100°
2026-05-04 07:13 -17.68264 177.57811 11964 ft 376 kts 100°
2026-05-04 07:13 -17.68687 177.60533 12584 ft 380 kts 100°
2026-05-04 07:13 -17.69111 177.63285 13188 ft 384 kts 100°
2026-05-04 07:14 -17.70689 177.73642 15085 ft 400 kts 99°
2026-05-04 07:14 -17.71128 177.76540 15597 ft 404 kts 99°
2026-05-04 07:15 -17.71571 177.79465 16083 ft 408 kts 99°
2026-05-04 07:15 -17.72018 177.82419 16545 ft 413 kts 99°
2026-05-04 07:15 -17.72617 177.86382 17235 ft 417 kts 99°
2026-05-04 07:15 -17.73073 177.89401 17712 ft 421 kts 99°
2026-05-04 07:16 -17.73383 177.91457 18059 ft 423 kts 99°
2026-05-04 07:16 -17.73845 177.94517 18474 ft 427 kts 99°
2026-05-04 07:16 -17.74312 177.97614 18830 ft 432 kts 99°
2026-05-04 07:16 -17.74782 178.00742 19244 ft 435 kts 99°
2026-05-04 07:17 -17.75255 178.03889 19652 ft 439 kts 99°
2026-05-04 07:17 -17.75732 178.07065 20030 ft 443 kts 99°
2026-05-04 07:17 -17.76214 178.10275 20375 ft 447 kts 98°
2026-05-04 07:17 -17.76697 178.13501 20815 ft 448 kts 98°
2026-05-04 07:18 -17.77176 178.16699 21224 ft 451 kts 98°
2026-05-04 07:18 -17.77665 178.19966 21576 ft 455 kts 98°
2026-05-04 07:18 -17.78157 178.23258 21933 ft 459 kts 98°
2026-05-04 07:18 -17.78652 178.26576 22306 ft 461 kts 98°
2026-05-04 07:19 -17.79150 178.29917 22679 ft 464 kts 98°
2026-05-04 07:19 -17.79649 178.33276 23020 ft 468 kts 98°
2026-05-04 07:19 -17.80153 178.36657 23370 ft 471 kts 98°
2026-05-04 07:19 -17.80659 178.40064 23699 ft 473 kts 98°
2026-05-04 07:20 -17.81166 178.43484 24009 ft 475 kts 98°
2026-05-04 07:20 -17.81676 178.46923 24290 ft 477 kts 98°
2026-05-04 07:20 -17.82188 178.50386 24578 ft 480 kts 98°
2026-05-04 07:20 -17.82701 178.53859 24870 ft 482 kts 98°
2026-05-04 07:22 -17.86325 178.78501 26794 ft 495 kts 97°
2026-05-04 07:22 -17.86849 178.82081 27056 ft 497 kts 97°
2026-05-04 07:23 -17.87374 178.85679 27307 ft 499 kts 97°
2026-05-04 07:23 -17.87900 178.89285 27557 ft 501 kts 97°
2026-05-04 07:23 -17.88428 178.92904 27799 ft 502 kts 97°
2026-05-04 07:23 -17.88957 178.96540 28040 ft 504 kts 97°
2026-05-04 07:24 -17.89486 179.00180 28277 ft 506 kts 97°
2026-05-04 07:24 -17.90017 179.03842 28506 ft 508 kts 97°
2026-05-04 07:24 -17.90549 179.07509 28728 ft 509 kts 97°
2026-05-04 07:24 -17.91076 179.11146 28951 ft 511 kts 97°
2026-05-04 07:25 -17.91556 179.14841 29166 ft 511 kts 94°
2026-05-04 07:26 -17.93220 179.41016 30839 ft 513 kts 91°
2026-05-04 07:27 -17.93470 179.44750 31071 ft 513 kts 91°
2026-05-04 07:27 -17.93720 179.48443 31322 ft 512 kts 91°
2026-05-04 07:27 -17.93972 179.52168 31576 ft 512 kts 91°
2026-05-04 07:27 -17.94224 179.55897 31818 ft 512 kts 90°
2026-05-04 07:28 -17.94473 179.59622 32046 ft 512 kts 90°
2026-05-04 07:28 -17.94721 179.63350 32281 ft 511 kts 90°
2026-05-04 07:28 -17.94968 179.67071 32535 ft 511 kts 90°
2026-05-04 07:28 -17.95214 179.70788 32783 ft 510 kts 90°
2026-05-04 07:29 -17.95458 179.74502 33034 ft 510 kts 90°
2026-05-04 07:29 -17.95702 179.78220 33276 ft 510 kts 90°
2026-05-04 07:29 -17.95944 179.81931 33507 ft 509 kts 90°
2026-05-04 07:29 -17.96186 179.85639 33742 ft 509 kts 89°
2026-05-04 07:30 -17.96427 179.89352 33975 ft 509 kts 89°
2026-05-04 07:30 -17.96667 179.93063 34159 ft 509 kts 89°
2026-05-04 07:30 -17.96908 179.96786 34305 ft 510 kts 89°
2026-05-04 07:30 -17.97147 -179.99492 34452 ft 511 kts 89°
2026-05-04 07:31 -17.97382 -179.95820 34612 ft 511 kts 89°
2026-05-04 07:31 -17.97625 -179.92089 34780 ft 512 kts 89°
2026-05-04 07:33 -17.99288 -179.65857 35822 ft 516 kts 89°
2026-05-04 07:33 -17.99522 -179.62092 35976 ft 516 kts 89°
2026-05-04 07:33 -17.99754 -179.58377 36163 ft 515 kts 89°
2026-05-04 07:33 -17.99987 -179.54622 36363 ft 514 kts 89°
2026-05-04 07:34 -18.00219 -179.50872 36546 ft 514 kts 89°
2026-05-04 07:34 -18.00450 -179.47125 36679 ft 514 kts 89°
2026-05-04 07:34 -18.00681 -179.43373 36796 ft 515 kts 89°
2026-05-04 07:34 -18.00910 -179.39617 36917 ft 515 kts 89°
2026-05-04 07:35 -18.01369 -179.32079 36963 ft 518 kts 89°
2026-05-04 07:35 -18.01826 -179.24537 36968 ft 517 kts 89°
2026-05-04 07:36 -18.02280 -179.17008 36966 ft 516 kts 89°
2026-05-04 07:38 -18.04060 -178.86948 36968 ft 515 kts 89°
2026-05-04 07:38 -18.04498 -178.79435 36972 ft 515 kts 89°
2026-05-04 07:39 -18.04930 -178.71965 36968 ft 515 kts 89°
2026-05-04 07:39 -18.05363 -178.64446 36973 ft 515 kts 89°
2026-05-04 07:40 -18.05793 -178.56918 36971 ft 516 kts 88°
2026-05-04 07:40 -18.06219 -178.49392 36967 ft 516 kts 88°
2026-05-04 07:41 -18.06644 -178.41864 36967 ft 516 kts 88°
2026-05-04 07:41 -18.07066 -178.34316 36973 ft 517 kts 88°
2026-05-04 07:42 -18.07486 -178.26764 36968 ft 517 kts 88°
2026-05-04 07:42 -18.07897 -178.19259 36969 ft 518 kts 88°
2026-05-04 07:43 -18.08305 -178.11689 36969 ft 518 kts 88°
2026-05-04 07:43 -18.08710 -178.04134 36972 ft 518 kts 88°
2026-05-04 07:44 -18.09113 -177.96568 36972 ft 518 kts 88°
2026-05-04 07:44 -18.09513 -177.89012 36963 ft 518 kts 88°
2026-05-04 07:45 -18.09910 -177.81460 36966 ft 517 kts 88°
2026-05-04 07:45 -18.10304 -177.73908 36956 ft 517 kts 88°
2026-05-04 07:46 -18.10692 -177.66412 36969 ft 516 kts 88°
2026-05-04 07:46 -18.11078 -177.58881 36965 ft 515 kts 88°
2026-05-04 07:47 -18.11461 -177.51364 36967 ft 515 kts 88°
2026-05-04 07:49 -18.12958 -177.21416 36966 ft 513 kts 88°
2026-05-04 07:49 -18.13325 -177.13934 36969 ft 512 kts 88°
2026-05-04 07:50 -18.13689 -177.06451 36967 ft 512 kts 87°
2026-05-04 07:50 -18.14049 -176.98979 36966 ft 512 kts 87°
2026-05-04 07:51 -18.14407 -176.91498 36967 ft 512 kts 87°
2026-05-04 07:51 -18.14763 -176.84021 36967 ft 512 kts 87°
2026-05-04 07:52 -18.15115 -176.76534 36966 ft 512 kts 87°
2026-05-04 07:52 -18.15465 -176.69061 36967 ft 512 kts 87°
2026-05-04 07:54 -18.16836 -176.39127 36967 ft 513 kts 87°
2026-05-04 07:55 -18.17173 -176.31608 36968 ft 514 kts 87°
2026-05-04 07:55 -18.17507 -176.24098 36969 ft 514 kts 88°
2026-05-04 07:56 -18.17838 -176.16591 36968 ft 514 kts 88°
2026-05-04 07:56 -18.18164 -176.09120 36966 ft 514 kts 88°
2026-05-04 07:57 -18.18490 -176.01608 36970 ft 514 kts 88°
2026-05-04 07:57 -18.18812 -175.94089 36966 ft 514 kts 88°
2026-05-04 07:58 -18.19131 -175.86590 36967 ft 513 kts 88°
2026-05-04 07:58 -18.19445 -175.79138 36965 ft 513 kts 88°
2026-05-04 07:59 -18.19758 -175.71644 36971 ft 512 kts 88°
2026-05-04 07:59 -18.20067 -175.64161 36968 ft 511 kts 88°
2026-05-04 08:00 -18.20373 -175.56690 36970 ft 511 kts 88°
2026-05-04 08:02 -18.21563 -175.26927 36972 ft 510 kts 88°
2026-05-04 08:02 -18.21854 -175.19474 36974 ft 510 kts 88°
2026-05-04 08:03 -18.22142 -175.12019 36971 ft 510 kts 88°
2026-05-04 08:03 -18.22379 -175.05813 36977 ft 510 kts 88°
2026-05-04 08:04 -18.22663 -174.98345 36975 ft 511 kts 88°
2026-05-04 08:04 -18.22946 -174.90879 36974 ft 511 kts 88°
2026-05-04 08:05 -18.23227 -174.83398 36977 ft 511 kts 88°
2026-05-04 08:05 -18.23505 -174.75916 36977 ft 512 kts 88°
2026-05-04 08:06 -18.23780 -174.68425 36974 ft 513 kts 88°
2026-05-04 08:06 -18.24053 -174.60931 36977 ft 513 kts 88°
2026-05-04 08:08 -18.25115 -174.30960 36979 ft 513 kts 88°
2026-05-04 08:11 -18.26252 -173.97258 36976 ft 511 kts 88°
2026-05-04 08:11 -18.26618 -173.86049 36978 ft 510 kts 88°